When you browse on this site, cookies collect data to enhance your experience and personalize the content and advertising you see.
Visit our Privacy Policy to learn more. By continuing to use the site, you agree to this use of cookies and data.
  • In Hungary
  • List of Countries
  • For 7 days
  • Water Temperature
  • Weather Map
  • News
  • Weather Widgets
  • user-avatar
    Login

    Hourly Weather Ndofane

    Today, 12 December, Thursday

    Time Temperature Precipitation Wind Pressure Humidity
    00:00 +27°C° 0 mm 5 mps 757 mmHg 16%
    01:00 +26°C° 0 mm 5 mps 757 mmHg 17%
    02:00 +25°C° 0 mm 5 mps 757 mmHg 18%
    03:00 +25°C° 0 mm 4 mps 757 mmHg 18%
    04:00 +23°C° 0 mm 4 mps 757 mmHg 19%
    05:00 +22°C° 0 mm 4 mps 757 mmHg 21%
    06:00 +23°C° 0 mm 5 mps 757 mmHg 20%
    07:00 +25°C° 0 mm 5 mps 758 mmHg 19%
    08:00 +26°C° 0 mm 6 mps 758 mmHg 18%
    09:00 +29°C° 0 mm 6 mps 758 mmHg 15%
    10:00 +32°C° 0 mm 6 mps 758 mmHg 13%
    11:00 +35°C° 0 mm 6 mps 758 mmHg 11%
    12:00 +36°C° 0 mm 6 mps 757 mmHg 10%
    13:00 +37°C° 0 mm 5 mps 757 mmHg 9%
    14:00 +40°C° 0 mm 4 mps 756 mmHg 9%
    15:00 +38°C° 0 mm 4 mps 756 mmHg 9%
    16:00 +37°C° 0 mm 3 mps 756 mmHg 10%
    17:00 +36°C° 0 mm 3 mps 756 mmHg 10%
    18:00 +34°C° 0 mm 3 mps 756 mmHg 12%
    19:00 +32°C° 0 mm 4 mps 757 mmHg 13%
    20:00 +30°C° 0 mm 4 mps 757 mmHg 14%
    21:00 +29°C° 0 mm 4 mps 758 mmHg 14%
    22:00 +28°C° 0 mm 4 mps 758 mmHg 15%
    23:00 +26°C° 0 mm 3 mps 758 mmHg 15%

    Tomorrow, 13 December, Friday

    Time Temperature Precipitation Wind Pressure Humidity
    00:00 +26°C° 0 mm 4 mps 757 mmHg 15%
    01:00 +26°C° 0 mm 4 mps 757 mmHg 14%
    02:00 +25°C° 0 mm 5 mps 757 mmHg 14%
    03:00 +25°C° 0 mm 5 mps 757 mmHg 14%
    04:00 +23°C° 0 mm 5 mps 757 mmHg 14%
    05:00 +22°C° 0 mm 5 mps 757 mmHg 14%
    06:00 +23°C° 0 mm 5 mps 757 mmHg 13%
    07:00 +24°C° 0 mm 6 mps 758 mmHg 12%
    08:00 +26°C° 0 mm 6 mps 759 mmHg 11%
    09:00 +29°C° 0 mm 6 mps 758 mmHg 10%
    10:00 +33°C° 0 mm 6 mps 758 mmHg 9%
    11:00 +36°C° 0 mm 6 mps 758 mmHg 8%
    12:00 +37°C° 0 mm 5 mps 757 mmHg 8%
    13:00 +38°C° 0 mm 4 mps 756 mmHg 7%
    14:00 +39°C° 0 mm 3 mps 756 mmHg 7%
    15:00 +38°C° 0 mm 3 mps 756 mmHg 10%
    16:00 +36°C° 0 mm 3 mps 756 mmHg 12%
    17:00 +35°C° 0 mm 4 mps 755 mmHg 14%
    18:00 +32°C° 0 mm 4 mps 756 mmHg 16%
    19:00 +29°C° 0 mm 4 mps 757 mmHg 18%
    20:00 +26°C° 0 mm 5 mps 757 mmHg 21%
    21:00 +26°C° 0 mm 5 mps 757 mmHg 21%
    22:00 +25°C° 0 mm 4 mps 757 mmHg 22%
    23:00 +25°C° 0 mm 4 mps 757 mmHg 23%

    Day after tomorrow, 14 December, Saturday

    Time Temperature Precipitation Wind Pressure Humidity
    00:00 +23°C° 0 mm 4 mps 757 mmHg 20%
    01:00 +24°C° 0 mm 3 mps 757 mmHg 18%
    02:00 +22°C° 0 mm 3 mps 756 mmHg 15%
    03:00 +22°C° 0 mm 3 mps 756 mmHg 15%
    04:00 +21°C° 0 mm 3 mps 757 mmHg 15%
    05:00 +21°C° 0 mm 3 mps 757 mmHg 15%
    06:00 +22°C° 0 mm 3 mps 757 mmHg 14%
    07:00 +24°C° 0 mm 3 mps 758 mmHg 14%
    08:00 +25°C° 0 mm 3 mps 758 mmHg 13%
    09:00 +29°C° 0 mm 3 mps 758 mmHg 11%
    10:00 +33°C° 0 mm 4 mps 758 mmHg 10%
    11:00 +36°C° 0 mm 4 mps 758 mmHg 8%
    12:00 +38°C° 0 mm 3 mps 757 mmHg 8%
    13:00 +39°C° 0 mm 3 mps 756 mmHg 7%
    14:00 +40°C° 0 mm 3 mps 756 mmHg 7%
    15:00 +38°C° 0 mm 4 mps 756 mmHg 10%
    16:00 +36°C° 0 mm 4 mps 756 mmHg 13%
    17:00 +34°C° 0 mm 5 mps 756 mmHg 15%
    18:00 +32°C° 0 mm 5 mps 756 mmHg 18%
    19:00 +29°C° 0 mm 5 mps 756 mmHg 21%
    20:00 +26°C° 0 mm 5 mps 757 mmHg 24%
    21:00 +25°C° 0 mm 5 mps 757 mmHg 28%
    22:00 +25°C° 0 mm 5 mps 757 mmHg 32%
    23:00 +23°C° 0 mm 4 mps 757 mmHg 36%

    15 December, Sunday

    Time Temperature Precipitation Wind Pressure Humidity
    00:00 +22°C° 0 mm 4 mps 757 mmHg 38%
    01:00 +21°C° 0 mm 3 mps 757 mmHg 40%
    02:00 +21°C° 0 mm 2 mps 757 mmHg 42%
    03:00 +20°C° 0 mm 3 mps 757 mmHg 38%
    04:00 +20°C° 0 mm 4 mps 756 mmHg 35%
    05:00 +20°C° 0 mm 4 mps 756 mmHg 31%
    06:00 +22°C° 0 mm 4 mps 757 mmHg 25%
    07:00 +23°C° 0 mm 5 mps 757 mmHg 19%
    08:00 +26°C° 0 mm 5 mps 758 mmHg 14%
    09:00 +29°C° 0 mm 5 mps 757 mmHg 12%
    10:00 +33°C° 0 mm 4 mps 757 mmHg 10%
    11:00 +37°C° 0 mm 4 mps 757 mmHg 8%
    12:00 +38°C° 0 mm 4 mps 756 mmHg 8%
    13:00 +39°C° 0 mm 3 mps 756 mmHg 8%
    14:00 +40°C° 0 mm 3 mps 755 mmHg 7%
    15:00 +38°C° 0 mm 4 mps 755 mmHg 11%
    16:00 +36°C° 0 mm 5 mps 755 mmHg 15%
    17:00 +34°C° 0 mm 6 mps 755 mmHg 19%
    18:00 +30°C° 0 mm 6 mps 755 mmHg 24%
    19:00 +28°C° 0 mm 6 mps 756 mmHg 29%
    20:00 +25°C° 0 mm 5 mps 756 mmHg 33%
    21:00 +23°C° 0 mm 5 mps 756 mmHg 38%
    22:00 +23°C° 0 mm 5 mps 757 mmHg 43%
    23:00 +22°C° 0 mm 5 mps 757 mmHg 48%

    16 December, Monday

    Time Temperature Precipitation Wind Pressure Humidity
    00:00 +22°C° 0 mm 5 mps 757 mmHg 48%
    01:00 +22°C° 0 mm 5 mps 756 mmHg 48%
    02:00 +21°C° 0 mm 5 mps 756 mmHg 49%
    03:00 +21°C° 0 mm 5 mps 756 mmHg 48%
    04:00 +21°C° 0 mm 5 mps 756 mmHg 48%
    05:00 +21°C° 0 mm 5 mps 756 mmHg 48%
    06:00 +22°C° 0 mm 6 mps 756 mmHg 42%
    07:00 +23°C° 0 mm 6 mps 757 mmHg 36%
    08:00 +24°C° 0 mm 7 mps 757 mmHg 30%
    09:00 +28°C° 0 mm 6 mps 757 mmHg 23%
    10:00 +32°C° 0 mm 6 mps 757 mmHg 17%
    11:00 +35°C° 0 mm 5 mps 757 mmHg 11%
    12:00 +37°C° 0 mm 5 mps 756 mmHg 10%
    13:00 +39°C° 0 mm 5 mps 756 mmHg 8%
    14:00 +40°C° 0 mm 5 mps 755 mmHg 7%
    15:00 +39°C° 0 mm 6 mps 755 mmHg 11%
    16:00 +36°C° 0 mm 6 mps 755 mmHg 14%
    17:00 +34°C° 0 mm 7 mps 755 mmHg 18%
    18:00 +30°C° 0 mm 7 mps 755 mmHg 26%
    19:00 +27°C° 0 mm 7 mps 756 mmHg 33%
    20:00 +23°C° 0 mm 7 mps 756 mmHg 41%
    21:00 +23°C° 0 mm 7 mps 756 mmHg 42%
    22:00 +23°C° 0 mm 7 mps 756 mmHg 43%
    23:00 +22°C° 0 mm 7 mps 756 mmHg 44%

    17 December, Tuesday

    Time Temperature Precipitation Wind Pressure Humidity
    00:00 +22°C° 0 mm 7 mps 756 mmHg 44%
    01:00 +22°C° 0 mm 6 mps 756 mmHg 43%
    02:00 +21°C° 0 mm 6 mps 756 mmHg 43%
    03:00 +21°C° 0 mm 6 mps 756 mmHg 42%
    04:00 +20°C° 0 mm 6 mps 756 mmHg 40%
    05:00 +20°C° 0 mm 6 mps 756 mmHg 39%
    06:00 +21°C° 0 mm 6 mps 756 mmHg 33%
    07:00 +22°C° 0 mm 6 mps 757 mmHg 28%
    08:00 +24°C° 0 mm 6 mps 757 mmHg 23%
    09:00 +28°C° 0 mm 6 mps 757 mmHg 18%
    10:00 +32°C° 0 mm 5 mps 757 mmHg 13%
    11:00 +35°C° 0 mm 5 mps 757 mmHg 8%
    12:00 +37°C° 0 mm 4 mps 756 mmHg 8%
    13:00 +38°C° 0 mm 4 mps 755 mmHg 7%
    14:00 +40°C° 0 mm 4 mps 754 mmHg 6%
    15:00 +38°C° 0 mm 4 mps 754 mmHg 8%
    16:00 +37°C° 0 mm 3 mps 754 mmHg 9%
    17:00 +36°C° 0 mm 3 mps 754 mmHg 10%
    18:00 +32°C° 0 mm 4 mps 755 mmHg 19%
    19:00 +28°C° 0 mm 5 mps 755 mmHg 28%
    20:00 +23°C° 0 mm 6 mps 756 mmHg 36%
    21:00 +23°C° 0 mm 6 mps 756 mmHg 38%
    22:00 +23°C° 0 mm 5 mps 756 mmHg 40%
    23:00 +23°C° 0 mm 5 mps 756 mmHg 42%
    Show more